sat.trackr.live / text

‹ back to catalog

STARLINK-35407

NORAD 66334 · 2025-253R

PAYLOAD ACTIVE UNKNOWN

§ Identity

Operator
Country
US
Launch date
2025-11-06
Launch site
AFETR
Launch vehicle
Mass (kg)
RCS (m²)

Purposes: comms

External: N2YO · Heavens-Above · Gunter

§ Orbital elements

Epoch: 2026-09-20T04:33:15.736608Z

Period
94.26 min
Inclination
43.0013°
Eccentricity
0.0001549
Mean motion
15.27610607 rev/d
Perigee alt
481.9 km
Apogee alt
484.0 km
Semi-major
6,861.1 km
B*
5.9706e-4
RAAN
193.8262°
Arg perigee
246.0358°
Mean anomaly
114.0331°
Rev number
4,999

§ Raw data

STARLINK-354071 66334U 25253R   26263.18976547  .00016219  00000+0  59706-3 0  99932 66334  43.0013 193.8262 0001549 246.0358 114.0331 15.27610607 49992

JSON: /api/v1/satellites/66334 · /tle

For live sub-satellite position, see the globe view (requires WebGL).

§ Visibility from observer

Set your observer location to see the next 7 days of passes ≥ 10°. The values pass through the URL so the page stays shareable.

No JS? Fill the form by hand. The geolocation button needs JavaScript.